Location: Vihti�l�
(61.3833°N, 23.0667°E)
Time: 04:21:30
(UTC+00:00)

Cosmos 1727 Rocket - Pass Details

Date: 29 November 2020
Orbit: 962 x 996 km, 82.9° (Epoch: 19 January)

Event Time Altitude Azimuth Distance (km) Brightness Sun altitude
Rises 05:35:08 0° 345° (NNW) 3,698 6.6 -9.9°
Reaches altitude 10° 05:37:40 10° 344° (NNW) 2,751 6.0 -9.6°
Maximum altitude 05:43:56 70° 263° (W) 1,053 4.0 -9.0°
Drops below altitude 10° 05:50:13 10° 181° (S) 2,755 6.8 -8.3°
Sets 05:52:44 0° 179° (S) 3,703 7.5 -8.1°
